Вернуться в каталог

FENGYUN 1C DEB

АктивенPO
NORAD 37478·DEBRIS·🇨🇳 China

Запущен May 10, 1999 с Taiyuan Satellite Launch Center

Loading…

Ближайшие Пролёты (ближайшие 24 часа)

TLE

СвежийSource: Space-Track

Эпоха: Sep 14, 2026, 02:55 UTC

1 37478U 99025EJY 26257.12156040  .00002383  00000-0  36983-2 0  9992
2 37478  99.6550 216.5532 0548904  44.5644 319.8272 13.03848435601497

Отслеживайте FENGYUN 1C DEB в реальном времени с AllMySat

Download on the App Store